Location: Lower Kingswood
(51.2667°N, 0.2167°W)
Time: 11:58:06
(UTC+00:00)

Resurs 1-4 Rocket - Pass Details

Date: 26 September 2023
Orbit: 800 x 812 km, 98.7° (Epoch: 10 December)

Event Time Altitude Azimuth Distance (km) Brightness Sun altitude
Rises 03:18:09 0° 8° (N) 3,323 5.8 -23.9°
Reaches altitude 10° 03:20:48 10° 357° (N) 2,388 4.9 -23.5°
Enters shadow 03:24:54 27° 306° (NW) 1,514 3.3 -23.0°
